This is the latest recevied weather packets stored in our database for station/object AB1AU. If no packets are shown the sender has not sent any weather packets the latest 10 day(s).
| Time | Temp. | Humidity | Pressure | Rain* | Wind** | Luminosity | Snow |
|---|---|---|---|---|---|---|---|
| 1777801046 | 5° C | 96% | 1008.6 hPa | 1.78 mm | - | 0 W/m² | - |
| 1777800743 | 5° C | 96% | 1008.5 hPa | 0 mm | - | 0 W/m² | - |
| 1777800439 | 5° C | 96% | 1008.6 hPa | 0 mm | - | 0 W/m² | - |
| 1777800136 | 5° C | 96% | 1008.6 hPa | 0 mm | - | 0 W/m² | - |
| 1777799836 | 5° C | 96% | 1008.7 hPa | 1.27 mm | - | 0 W/m² | - |
| 1777799534 | 5° C | 96% | 1008.7 hPa | 0 mm | - | 0 W/m² | - |
| 1777799229 | 5° C | 96% | 1008.8 hPa | 0 mm | - | 0 W/m² | - |
| 1777798926 | 5° C | 96% | 1008.7 hPa | 0 mm | - | 0 W/m² | - |
| 1777798621 | 5° C | 96% | 1008.9 hPa | 1.78 mm | - | 0 W/m² | - |
| 1777798319 | 5° C | 96% | 1009 hPa | 1.78 mm | - | 0 W/m² | - |
| 1777798015 | 5° C | 96% | 1008.9 hPa | 1.27 mm | - | 0 W/m² | - |
| 1777797713 | 5° C | 96% | 1009.1 hPa | 1.27 mm | - | 0 W/m² | - |
| 1777797410 | 5° C | 96% | 1009 hPa | 1.78 mm | - | 0 W/m² | - |
| 1777797107 | 5° C | 96% | 1009.2 hPa | 0 mm | - | 0 W/m² | - |
| 1777796804 | 5° C | 96% | 1009.5 hPa | 1.27 mm | - | 0 W/m² | - |
| 1777796501 | 5° C | 96% | 1009.3 hPa | 0 mm | - | 0 W/m² | - |
| 1777796196 | 5° C | 96% | 1009.5 hPa | 0 mm | - | 0 W/m² | - |
| 1777795892 | 5° C | 96% | 1009.5 hPa | 0 mm | - | 0 W/m² | - |
| 1777795589 | 5° C | 96% | 1009.3 hPa | 1.78 mm | - | 0 W/m² | - |
| 1777795285 | 5° C | 96% | 1009.2 hPa | 1.78 mm | - | 0 W/m² | - |
| 1777794982 | 5° C | 96% | 1009.1 hPa | 0 mm | - | 0 W/m² | - |
| 1777794679 | 5° C | 96% | 1009.2 hPa | 0 mm | - | 0 W/m² | - |
| 1777794374 | 5° C | 96% | 1009.5 hPa | 0 mm | - | 0 W/m² | - |
| 1777794070 | 5° C | 96% | 1009.6 hPa | 0 mm | - | 0 W/m² | - |
| 1777793767 | 5° C | 95% | 1009.7 hPa | 0 mm | - | 0 W/m² | - |
* Rain latest hour (hover to see other rain measurements)
** Current wind speed in m/s (hover to see current wind gust speed)